Regional Weather Roundup
Issued by NWS

Home | Current Version | Previous Version | Graphics & Text | Print | Product List | Glossary On
Versions: 1 2 3 4 5 6 7 8 9 10 11 12 13 14 15 16 17 18 19 20 21 22 23 24 25 26 27 28 29 30 31 32 33 34 35 36 37 38 39 40 41 42 43 44 45 46 47 48 49 50
000
ASUS43 KFSD 280310
RWRSD

WEATHER ROUNDUP FOR SOUTH DAKOTA
NATIONAL WEATHER SERVICE SIOUX FALLS SD
1000 PM CDT TUE JUN 27 2017

NOTE: "FAIR" INDICATES FEW OR NO CLOUDS BELOW 12,000 FEET WITH NO
SIGNIFICANT WEATHER AND/OR OBSTRUCTIONS TO VISIBILITY.


SDZ001>005-009-010-012>017-280400-
NORTHWEST AND NORTH CENTRAL SOUTH DAKOTA

CITY           SKY/WX    TMP DP  RH WIND       PRES   REMARKS
BUFFALO          N/A     78  48  34 NW18      29.62R
FAITH            N/A     79  49  34 NW9       29.61R
MOBRIDGE       CLOUDY    84  59  42 S24G38    29.46S
$$

SDZ012>016-024>037-041>051-057-063-072>074-280400-
SOUTHWEST AND SOUTH CENTRAL SOUTH DAKOTA

CITY           SKY/WX    TMP DP  RH WIND       PRES   REMARKS
RAPID CTY ARPT CLOUDY    67  53  61 NW16      29.69S
PIERRE         LGT RAIN  70  59  68 NW13G22   29.56F
CUSTER         CLOUDY    60  46  59 N6        29.84F
PHILIP         LGT RAIN  64 N/A N/A NE6       29.65F
PINE RIDGE     CLOUDY    62  60  93 SW8       29.74F
SPEARFISH      FAIR      61  55  82 SW6G15    29.77F
WINNER         FAIR      75  55  49 W9G17     29.69R
$$

SDZ004>011-016>023-039-040-280400-
NORTHEAST SOUTH DAKOTA

CITY           SKY/WX    TMP DP  RH WIND       PRES   REMARKS
ABERDEEN       CLOUDY    76  59  55 SE24G32   29.55F
WATERTOWN      PTCLDY    72  57  59 SE14G24   29.68F
SISSETON         N/A     73  50  44 SE15      29.65R
$$

SDZ017-020-022-023-036>040-048>070-280400-
SOUTHEAST SOUTH DAKOTA

CITY           SKY/WX    TMP DP  RH WIND       PRES   REMARKS
SIOUX FALLS    CLOUDY    74  63  68 S18G25    29.71R
HURON          CLOUDY    79  64  60 SE15G24   29.60F
CHAMBERLAIN    CLOUDY    79  56  46 W20G32    29.67R
MITCHELL       CLOUDY    80  65  59 S18G29    29.65S
YANKTON        MOCLDY    76  65  68 SE15G22   29.67R
$$

ABBREVIATIONS USED IN REMARKS
   TC - TEMPERATURE IN CELSIUS
  WCI - WIND CHILL INDEX
   HX - HEAT INDEX
  VSB - VISIBILITY




USA.gov is the U.S. government's official web portal to all federal, state and local government web resources and services.